Regional Weather Roundup
Issued by NWS Portland, ME

Home | Current Version | Previous Version | Text Only | Print | Product List | Glossary On
Versions: 1 2 3 4 5 6 7 8 9 10 11 12 13 14 15 16 17 18 19 20 21 22 23 24 25 26 27 28 29 30 31 32 33 34 35 36 37 38 39 40 41 42 43 44 45 46 47 48 49 50
000
ASUS41 KGYX 070910
RWRGYX
WEATHER ROUNDUP FOR MAINE AND NEW HAMPSHIRE
NATIONAL WEATHER SERVICE GRAY ME
500 AM EDT THU MAY 07 2015

MEZ002-005-006-010-012-015-018-020-021-024-026-027-029-071000-
MAINE

CITY           SKY/WX    TMP DP  RH WIND       PRES   REMARKS
PORTLAND       FAIR      46  39  76 W5        30.14S
SANFORD        CLEAR     39  34  81 W6        30.16S
BAR HARBOR     PTCLDY    43  41  93 CALM      30.11R
WISCASSET      PTCLDY    40  37  89 CALM      30.14
ROCKLAND       PTCLDY    48  37  66 W7        30.11S
FRYEBURG       CLEAR     44  34  67 CALM      30.16
AUGUSTA        PTCLDY    55  33  43 NW5       30.13S
WATERVILLE     PTCLDY    48  36  61 S3        30.10R
BANGOR         MOCLDY    51  36  56 SW6       30.11R
GREENVILLE       N/A     48  36  63 VRB3      30.09R
MILLINOCKET    PTCLDY    47  37  68 E5        30.08S
HOULTON        PTCLDY    43  32  65 CALM      30.05R
PRESQUE ISLE   MOCLDY    34  28  80 CALM      30.05R
FRENCHVILLE    MOCLDY    44  25  47 W7        30.03
CARIBOU        MOCLDY    46  26  45 W7        30.03
$$

NHZ002-005-008-009-011-012-014-071000-
NEW HAMPSHIRE

CITY           SKY/WX    TMP DP  RH WIND       PRES   REMARKS
PORTSMOUTH     PTCLDY    51  42  69 W3        30.15S
ROCHESTER      CLEAR     53  36  52 NW6       30.15F
NASHUA         CLEAR     46  40  79 CALM      30.18S
MANCHESTER     CLEAR     50  38  63 CALM      30.17R
CONCORD        CLEAR     45  38  76 N3        30.18F
LACONIA        CLEAR     45  37  76 CALM      30.18R
PLYMOUTH       FAIR      37  37 100 CALM      30.20S
BERLIN         PTCLDY    32  29  88 CALM      30.18R
WHITEFIELD     CLEAR     34  31  88 CALM      30.19R
JAFFREY        CLEAR     41  38  89 S3        30.20F
KEENE          CLEAR     41  37  87 CALM      30.21S
LEBANON        CLEAR     39  34  82 CALM      30.20S
MT WASHINGTON  PTCLDY    37  27  65 NW46        N/A
$$

VTZ005-007-008-071000-
VERMONT

CITY           SKY/WX    TMP DP  RH WIND       PRES   REMARKS
ST JOHNSBURY     N/A     41  37  86 MISG      30.19R
MONTPELIER     CLEAR     41  34  76 CALM      30.22F
BURLINGTON     CLEAR     50  36  58 CALM      30.18R
$$

MAZ007-012-024-CTZ003-RIZ002-NYZ038-NYZ072-071000-
SOUTHERN NEW ENGLAND AND NY

CITY           SKY/WX    TMP DP  RH WIND       PRES   REMARKS
BOSTON         CLEAR     56  35  45 W5        30.18S
WORCESTER      FAIR      54  34  46 W13       30.20S
NANTUCKET      CLEAR     49  39  68 NW7       30.20S
PROVIDENCE     CLEAR     44  35  70 S6        30.19F
HARTFORD       PTCLDY    45  36  70 CALM      30.20S
ALBANY         CLEAR     49  40  71 CALM      30.21R
NEW YORK CITY  CLEAR     52  46  80 E5        30.20S
$$

ANZ081-ANZ082-ANZ150-NHZ014-MEZ023>029-071000-
COASTAL MARINE OBSERVATIONS

STATION/POSITION TIME  TEMP    WIND        PRES    WAVE
                       AIR SEA DIR/SP/G            HT/PER
                 (UTC) (F)     (DEG/KT/KT) (MB)    (FT/S)
MOUNT DESERT ROC 0900   45     240/ 10/ 10   N/A
MATINICUS ROCK   0800   46     260/ 14       N/A
ISLE OF SHOALS   0800   57     240/ 11/ 12   N/A
JEFFREYS LEDGE   0803      48                N/A     2/10
CASHES LEDGE BUO 0850   49 44                N/A     3/ 5
GEORGES BANK BUO 0850   47 43  300/  8/ 10   N/A     3/ 7
$$

.............KEY..............
   WCI - WIND CHILL
   TC  - TEMPERATURE IN CELSIUS
   VSB - VISIBILITY IN MILES
   HX  - HEAT INDEX
   FAIR- INDICATES FEW OR NO CLOUDS BELOW 12,000 FT, WITH NO
         SIGNIFICANT WEATHER AND/OR OBSTRUCTIONS TO VISIBILITY.





USA.gov is the U.S. government's official web portal to all federal, state and local government web resources and services.